Time,TemperatureF,DewpointF,PressureIn,WindDirection,WindDirectionDegrees,WindSpeedMPH,WindSpeedGustMPH,Humidity,HourlyPrecipIn,Conditions,Clouds,dailyrainin,SoftwareType,DateUTC
2013-04-21 00:01:00,43.0,26.1,30.12,ESE,112,3.0,16.0,51,0.00,,,0.00,Weather View 32 v70,2013-04-21 04:01:00,
2013-04-21 00:06:00,43.0,25.6,30.12,WSW,247,9.0,16.0,50,0.00,,,0.00,Weather View 32 v70,2013-04-21 04:06:00,
2013-04-21 00:12:00,43.0,25.6,30.12,NNW,337,7.0,16.0,50,0.00,,,0.00,Weather View 32 v70,2013-04-21 04:12:00,
2013-04-21 00:17:00,42.0,25.2,30.12,WNW,292,6.0,16.0,51,0.00,,,0.00,Weather View 32 v70,2013-04-21 04:17:00,
2013-04-21 00:22:00,42.0,25.2,30.12,NW,315,7.0,16.0,51,0.00,,,0.00,Weather View 32 v70,2013-04-21 04:22:00,
2013-04-21 00:27:00,42.0,25.6,30.12,NW,315,6.0,16.0,52,0.00,,,0.00,Weather View 32 v70,2013-04-21 04:27:00,
2013-04-21 00:32:00,42.0,25.6,30.12,NNE,22,3.0,15.0,52,0.00,,,0.00,Weather View 32 v70,2013-04-21 04:32:00,
2013-04-21 00:37:00,42.0,26.1,30.12,North,360,3.0,15.0,53,0.00,,,0.00,Weather View 32 v70,2013-04-21 04:37:00,
2013-04-21 00:42:00,41.0,25.2,30.12,NE,45,2.0,15.0,53,0.00,,,0.00,Weather View 32 v70,2013-04-21 04:42:00,
2013-04-21 00:47:00,41.0,25.6,30.12,NNE,22,8.0,15.0,54,0.00,,,0.00,Weather View 32 v70,2013-04-21 04:47:00,
2013-04-21 00:52:00,41.0,25.6,30.12,NE,45,1.0,15.0,54,0.00,,,0.00,Weather View 32 v70,2013-04-21 04:52:00,
2013-04-21 00:57:00,40.0,25.1,30.12,NE,45,6.0,15.0,55,0.00,,,0.00,Weather View 32 v70,2013-04-21 04:57:00,
2013-04-21 01:02:00,40.0,25.5,30.10,North,360,5.0,15.0,56,0.00,,,0.00,Weather View 32 v70,2013-04-21 05:02:00,
2013-04-21 01:07:00,40.0,25.5,30.12,North,360,2.0,15.0,56,0.00,,,0.00,Weather View 32 v70,2013-04-21 05:07:00,
2013-04-21 01:12:00,40.0,26.0,30.10,NW,315,3.0,14.0,57,0.00,,,0.00,Weather View 32 v70,2013-04-21 05:12:00,
2013-04-21 01:18:00,40.0,26.0,30.13,NW,315,3.0,14.0,57,0.00,,,0.00,Weather View 32 v70,2013-04-21 05:18:00,
2013-04-21 01:23:00,40.0,26.0,30.14,NNE,22,4.0,13.0,57,0.00,,,0.00,Weather View 32 v70,2013-04-21 05:23:00,
2013-04-21 01:28:00,39.0,25.0,30.14,NNE,22,3.0,13.0,57,0.00,,,0.00,Weather View 32 v70,2013-04-21 05:28:00,
2013-04-21 01:33:00,39.0,25.5,30.14,NE,45,0.0,13.0,58,0.00,,,0.00,Weather View 32 v70,2013-04-21 05:33:00,
2013-04-21 01:38:00,38.0,24.9,30.14,NNE,22,2.0,13.0,59,0.00,,,0.00,Weather View 32 v70,2013-04-21 05:38:00,
2013-04-21 01:43:00,38.0,25.3,30.14,NNE,22,0.0,13.0,60,0.00,,,0.00,Weather View 32 v70,2013-04-21 05:43:00,
2013-04-21 01:48:00,38.0,26.1,30.14,WSW,247,0.0,13.0,62,0.00,,,0.00,Weather View 32 v70,2013-04-21 05:48:00,
2013-04-21 01:53:00,37.0,25.2,30.14,NW,315,0.0,7.0,62,0.00,,,0.00,Weather View 32 v70,2013-04-21 05:53:00,
2013-04-21 01:58:00,37.0,25.2,30.13,NW,315,0.0,7.0,62,0.00,,,0.00,Weather View 32 v70,2013-04-21 05:58:00,
2013-04-21 02:03:00,37.0,25.9,30.13,WNW,292,0.0,7.0,64,0.00,,,0.00,Weather View 32 v70,2013-04-21 06:03:00,
2013-04-21 02:08:00,37.0,25.9,30.13,North,360,2.0,7.0,64,0.00,,,0.00,Weather View 32 v70,2013-04-21 06:08:00,
2013-04-21 02:13:00,36.0,25.4,30.14,North,360,2.0,6.0,65,0.00,,,0.00,Weather View 32 v70,2013-04-21 06:13:00,
2013-04-21 02:18:00,36.0,25.4,30.14,North,360,2.0,6.0,65,0.00,,,0.00,Weather View 32 v70,2013-04-21 06:18:00,
2013-04-21 02:23:00,36.0,25.4,30.14,North,360,4.0,6.0,65,0.00,,,0.00,Weather View 32 v70,2013-04-21 06:23:00,
2013-04-21 02:28:00,36.0,25.4,30.14,NNW,337,2.0,6.0,65,0.00,,,0.00,Weather View 32 v70,2013-04-21 06:28:00,
2013-04-21 02:33:00,37.0,25.9,30.14,NNW,337,1.0,6.0,64,0.00,,,0.00,Weather View 32 v70,2013-04-21 06:33:00,
2013-04-21 02:38:00,36.0,25.4,30.14,NNW,337,0.0,6.0,65,0.00,,,0.00,Weather View 32 v70,2013-04-21 06:38:00,
2013-04-21 02:43:00,36.0,26.1,30.14,NW,315,1.0,6.0,67,0.00,,,0.00,Weather View 32 v70,2013-04-21 06:43:00,
2013-04-21 02:48:00,36.0,25.7,30.14,North,360,3.0,5.0,66,0.00,,,0.00,Weather View 32 v70,2013-04-21 06:48:00,
2013-04-21 02:53:00,37.0,25.9,30.14,WNW,292,1.0,5.0,64,0.00,,,0.00,Weather View 32 v70,2013-04-21 06:53:00,
2013-04-21 02:58:00,37.0,25.6,30.15,NW,315,2.0,5.0,63,0.00,,,0.00,Weather View 32 v70,2013-04-21 06:58:00,
2013-04-21 03:03:00,37.0,25.9,30.15,WNW,292,2.0,6.0,64,0.00,,,0.00,Weather View 32 v70,2013-04-21 07:03:00,
2013-04-21 03:08:00,37.0,25.9,30.15,WNW,292,0.0,6.0,64,0.00,,,0.00,Weather View 32 v70,2013-04-21 07:08:00,
2013-04-21 03:13:00,36.0,25.4,30.16,NW,315,0.0,6.0,65,0.00,,,0.00,Weather View 32 v70,2013-04-21 07:13:00,
2013-04-21 03:18:00,36.0,25.7,30.16,NNW,337,2.0,7.0,66,0.00,,,0.00,Weather View 32 v70,2013-04-21 07:18:00,
2013-04-21 03:23:00,36.0,25.7,30.16,North,360,3.0,7.0,66,0.00,,,0.00,Weather View 32 v70,2013-04-21 07:23:00,
2013-04-21 03:28:00,36.0,25.7,30.16,NW,315,6.0,7.0,66,0.00,,,0.00,Weather View 32 v70,2013-04-21 07:28:00,
2013-04-21 03:33:00,36.0,25.7,30.16,WNW,292,0.0,7.0,66,0.00,,,0.00,Weather View 32 v70,2013-04-21 07:33:00,
2013-04-21 03:38:00,36.0,25.7,30.16,North,360,3.0,7.0,66,0.00,,,0.00,Weather View 32 v70,2013-04-21 07:38:00,
2013-04-21 03:43:00,36.0,25.7,30.16,NNW,337,4.0,7.0,66,0.00,,,0.00,Weather View 32 v70,2013-04-21 07:43:00,
2013-04-21 03:48:00,36.0,25.7,30.17,North,360,6.0,7.0,66,0.00,,,0.00,Weather View 32 v70,2013-04-21 07:48:00,
2013-04-21 03:53:00,36.0,25.7,30.17,NNW,337,4.0,7.0,66,0.00,,,0.00,Weather View 32 v70,2013-04-21 07:53:00,
2013-04-21 03:58:00,36.0,25.7,30.17,NW,315,3.0,7.0,66,0.00,,,0.00,Weather View 32 v70,2013-04-21 07:58:00,
2013-04-21 04:03:00,36.0,25.4,30.18,NW,315,7.0,9.0,65,0.00,,,0.00,Weather View 32 v70,2013-04-21 08:03:00,
2013-04-21 04:08:00,36.0,25.7,30.18,WNW,292,6.0,9.0,66,0.00,,,0.00,Weather View 32 v70,2013-04-21 08:08:00,
2013-04-21 04:13:00,36.0,25.7,30.18,NW,315,6.0,9.0,66,0.00,,,0.00,Weather View 32 v70,2013-04-21 08:13:00,
2013-04-21 04:18:00,36.0,25.7,30.18,NNW,337,5.0,9.0,66,0.00,,,0.00,Weather View 32 v70,2013-04-21 08:18:00,
2013-04-21 04:23:00,36.0,25.7,30.18,NW,315,1.0,9.0,66,0.00,,,0.00,Weather View 32 v70,2013-04-21 08:23:00,
2013-04-21 04:28:00,36.0,25.7,30.19,NW,315,2.0,9.0,66,0.00,,,0.00,Weather View 32 v70,2013-04-21 08:28:00,
2013-04-21 04:33:00,35.0,25.1,30.19,North,360,4.0,9.0,67,0.00,,,0.00,Weather View 32 v70,2013-04-21 08:33:00,
2013-04-21 04:38:00,35.0,25.1,30.19,North,360,1.0,9.0,67,0.00,,,0.00,Weather View 32 v70,2013-04-21 08:38:00,
2013-04-21 04:43:00,35.0,25.5,30.20,NW,315,4.0,9.0,68,0.00,,,0.00,Weather View 32 v70,2013-04-21 08:43:00,
2013-04-21 04:48:00,35.0,25.5,30.20,WNW,292,3.0,9.0,68,0.00,,,0.00,Weather View 32 v70,2013-04-21 08:48:00,
2013-04-21 04:53:00,35.0,25.1,30.19,NW,315,5.0,9.0,67,0.00,,,0.00,Weather View 32 v70,2013-04-21 08:53:00,
2013-04-21 04:58:00,35.0,25.1,30.20,NW,315,4.0,9.0,67,0.00,,,0.00,Weather View 32 v70,2013-04-21 08:58:00,
2013-04-21 05:03:00,36.0,26.1,30.20,NW,315,6.0,10.0,67,0.00,,,0.00,Weather View 32 v70,2013-04-21 09:03:00,
2013-04-21 05:08:00,36.0,25.7,30.20,NW,315,7.0,10.0,66,0.00,,,0.00,Weather View 32 v70,2013-04-21 09:08:00,
2013-04-21 05:13:00,36.0,25.4,30.22,NNW,337,4.0,12.0,65,0.00,,,0.00,Weather View 32 v70,2013-04-21 09:13:00,
2013-04-21 05:18:00,36.0,25.4,30.22,NW,315,9.0,12.0,65,0.00,,,0.00,Weather View 32 v70,2013-04-21 09:18:00,
2013-04-21 05:23:00,35.0,24.8,30.23,SSE,157,3.0,12.0,66,0.00,,,0.00,Weather View 32 v70,2013-04-21 09:23:00,
2013-04-21 05:28:00,35.0,24.4,30.23,NNW,337,6.0,12.0,65,0.00,,,0.00,Weather View 32 v70,2013-04-21 09:28:00,
2013-04-21 05:33:00,35.0,24.8,30.23,NW,315,10.0,12.0,66,0.00,,,0.00,Weather View 32 v70,2013-04-21 09:33:00,
2013-04-21 05:38:00,35.0,24.8,30.23,WNW,292,6.0,12.0,66,0.00,,,0.00,Weather View 32 v70,2013-04-21 09:38:00,
2013-04-21 05:43:00,35.0,25.1,30.23,NW,315,4.0,12.0,67,0.00,,,0.00,Weather View 32 v70,2013-04-21 09:43:00,
2013-04-21 05:48:00,35.0,24.8,30.23,NW,315,6.0,12.0,66,0.00,,,0.00,Weather View 32 v70,2013-04-21 09:48:00,
2013-04-21 05:53:00,35.0,25.1,30.24,NNW,337,2.0,12.0,67,0.00,,,0.00,Weather View 32 v70,2013-04-21 09:53:00,
2013-04-21 05:58:00,35.0,25.1,30.23,SW,225,4.0,12.0,67,0.00,,,0.00,Weather View 32 v70,2013-04-21 09:58:00,
2013-04-21 06:03:00,35.0,25.1,30.23,WNW,292,4.0,12.0,67,0.00,,,0.00,Weather View 32 v70,2013-04-21 10:03:00,
2013-04-21 06:08:00,35.0,25.1,30.24,NNW,337,10.0,12.0,67,0.00,,,0.00,Weather View 32 v70,2013-04-21 10:08:00,
2013-04-21 06:13:00,35.0,25.1,30.26,NW,315,6.0,10.0,67,0.00,,,0.00,Weather View 32 v70,2013-04-21 10:13:00,
2013-04-21 06:18:00,35.0,25.1,30.27,NNE,22,2.0,10.0,67,0.00,,,0.00,Weather View 32 v70,2013-04-21 10:18:00,
2013-04-21 06:23:00,36.0,25.4,30.29,NNW,337,7.0,10.0,65,0.00,,,0.00,Weather View 32 v70,2013-04-21 10:23:00,
2013-04-21 06:28:00,36.0,25.4,30.30,North,360,5.0,10.0,65,0.00,,,0.00,Weather View 32 v70,2013-04-21 10:28:00,
2013-04-21 06:33:00,36.0,25.4,30.31,North,360,3.0,10.0,65,0.00,,,0.00,Weather View 32 v70,2013-04-21 10:33:00,
2013-04-21 06:38:00,37.0,25.9,30.33,NNW,337,7.0,10.0,64,0.00,,,0.00,Weather View 32 v70,2013-04-21 10:38:00,
2013-04-21 06:43:00,37.0,25.2,30.33,NNW,337,6.0,13.0,62,0.00,,,0.00,Weather View 32 v70,2013-04-21 10:43:00,
2013-04-21 06:48:00,37.0,25.2,30.34,NNW,337,15.0,18.0,62,0.00,,,0.00,Weather View 32 v70,2013-04-21 10:48:00,
2013-04-21 06:53:00,37.0,25.2,30.34,WNW,292,6.0,18.0,62,0.00,,,0.00,Weather View 32 v70,2013-04-21 10:53:00,
2013-04-21 06:58:00,37.0,24.8,30.34,NNW,337,22.0,22.0,61,0.00,,,0.00,Weather View 32 v70,2013-04-21 10:58:00,
2013-04-21 07:03:00,37.0,24.0,30.35,NNW,337,12.0,22.0,59,0.00,,,0.00,Weather View 32 v70,2013-04-21 11:03:00,
2013-04-21 07:08:00,38.0,24.9,30.35,SW,225,2.0,22.0,59,0.00,,,0.00,Weather View 32 v70,2013-04-21 11:08:00,
2013-04-21 07:13:00,38.0,24.5,30.37,North,360,2.0,22.0,58,0.00,,,0.00,Weather View 32 v70,2013-04-21 11:13:00,
2013-04-21 07:18:00,38.0,23.2,30.38,SE,135,5.0,22.0,55,0.00,,,0.00,Weather View 32 v70,2013-04-21 11:18:00,
2013-04-21 07:23:00,38.0,23.2,30.38,NNW,337,3.0,22.0,55,0.00,,,0.00,Weather View 32 v70,2013-04-21 11:23:00,
2013-04-21 07:28:00,39.0,23.7,30.38,NNW,337,15.0,22.0,54,0.00,,,0.00,Weather View 32 v70,2013-04-21 11:28:00,
2013-04-21 07:33:00,38.0,22.8,30.39,NNW,337,10.0,22.0,54,0.00,,,0.00,Weather View 32 v70,2013-04-21 11:33:00,
2013-04-21 07:38:00,38.0,22.8,30.39,WNW,292,13.0,22.0,54,0.00,,,0.00,Weather View 32 v70,2013-04-21 11:38:00,
2013-04-21 07:43:00,39.0,23.3,30.40,NNW,337,15.0,22.0,53,0.00,,,0.00,Weather View 32 v70,2013-04-21 11:43:00,
2013-04-21 07:48:00,38.0,22.8,30.40,NNE,22,12.0,22.0,54,0.00,,,0.00,Weather View 32 v70,2013-04-21 11:48:00,
2013-04-21 07:53:00,39.0,22.8,30.40,NW,315,20.0,22.0,52,0.00,,,0.00,Weather View 32 v70,2013-04-21 11:53:00,
2013-04-21 07:58:00,39.0,23.3,30.41,NW,315,17.0,24.0,53,0.00,,,0.00,Weather View 32 v70,2013-04-21 11:58:00,
2013-04-21 08:03:00,39.0,23.7,30.38,NNW,337,9.0,24.0,54,0.00,,,0.00,Weather View 32 v70,2013-04-21 12:03:00,
2013-04-21 08:08:00,39.0,23.7,30.41,WNW,292,11.0,24.0,54,0.00,,,0.00,Weather View 32 v70,2013-04-21 12:08:00,
2013-04-21 08:13:00,39.0,23.7,30.41,WNW,292,11.0,24.0,54,0.00,,,0.00,Weather View 32 v70,2013-04-21 12:13:00,
2013-04-21 08:18:00,39.0,22.8,30.43,WSW,247,4.0,24.0,52,0.00,,,0.00,Weather View 32 v70,2013-04-21 12:18:00,
2013-04-21 08:23:00,39.0,23.3,30.43,NW,315,10.0,24.0,53,0.00,,,0.00,Weather View 32 v70,2013-04-21 12:23:00,
2013-04-21 08:28:00,39.0,23.3,30.43,West,270,7.0,24.0,53,0.00,,,0.00,Weather View 32 v70,2013-04-21 12:28:00,
2013-04-21 08:33:00,41.0,24.2,30.43,North,360,13.0,24.0,51,0.00,,,0.00,Weather View 32 v70,2013-04-21 12:33:00,
2013-04-21 08:38:00,40.0,23.3,30.42,NW,315,15.0,24.0,51,0.00,,,0.00,Weather View 32 v70,2013-04-21 12:38:00,
2013-04-21 08:43:00,41.0,24.2,30.42,NW,315,10.0,24.0,51,0.00,,,0.00,Weather View 32 v70,2013-04-21 12:43:00,
2013-04-21 08:48:00,42.0,23.2,30.43,SW,225,6.0,24.0,47,0.00,,,0.00,Weather View 32 v70,2013-04-21 12:48:00,
2013-04-21 08:53:00,41.0,23.3,30.43,NNE,22,15.0,24.0,49,0.00,,,0.00,Weather View 32 v70,2013-04-21 12:53:00,
2013-04-21 08:58:00,42.0,23.2,30.45,NNE,22,9.0,22.0,47,0.00,,,0.00,Weather View 32 v70,2013-04-21 12:58:00,
2013-04-21 09:03:00,42.0,23.2,30.45,East,90,7.0,22.0,47,0.00,,,0.00,Weather View 32 v70,2013-04-21 13:03:00,
2013-04-21 09:08:00,39.0,20.9,30.46,NW,315,6.0,22.0,48,0.00,,,0.00,Weather View 32 v70,2013-04-21 13:08:00,
2013-04-21 09:13:00,41.0,22.3,30.45,NNW,337,11.0,20.0,47,0.00,,,0.00,Weather View 32 v70,2013-04-21 13:13:00,
2013-04-21 09:18:00,40.0,21.4,30.45,North,360,9.0,20.0,47,0.00,,,0.00,Weather View 32 v70,2013-04-21 13:18:00,
2013-04-21 09:23:00,41.0,22.3,30.45,North,360,12.0,20.0,47,0.00,,,0.00,Weather View 32 v70,2013-04-21 13:23:00,
2013-04-21 09:28:00,42.0,22.2,30.45,NNE,22,15.0,20.0,45,0.00,,,0.00,Weather View 32 v70,2013-04-21 13:28:00,
2013-04-21 09:33:00,41.0,20.7,30.46,NNW,337,8.0,21.0,44,0.00,,,0.00,Weather View 32 v70,2013-04-21 13:33:00,
2013-04-21 09:38:00,40.0,19.8,30.46,WSW,247,9.0,21.0,44,0.00,,,0.00,Weather View 32 v70,2013-04-21 13:38:00,
2013-04-21 09:43:00,41.0,20.2,30.46,NW,315,16.0,24.0,43,0.00,,,0.00,Weather View 32 v70,2013-04-21 13:43:00,
2013-04-21 09:48:00,40.0,19.8,30.45,NW,315,13.0,24.0,44,0.00,,,0.00,Weather View 32 v70,2013-04-21 13:48:00,
2013-04-21 09:53:00,40.0,18.7,30.46,North,360,10.0,24.0,42,0.00,,,0.00,Weather View 32 v70,2013-04-21 13:53:00,
2013-04-21 09:58:00,41.0,19.6,30.45,ENE,67,6.0,24.0,42,0.00,,,0.00,Weather View 32 v70,2013-04-21 13:58:00,
2013-04-21 10:03:00,42.0,20.0,30.46,SSW,202,6.0,24.0,41,0.00,,,0.00,Weather View 32 v70,2013-04-21 14:03:00,
2013-04-21 10:08:00,42.0,18.8,30.46,NW,315,7.0,24.0,39,0.00,,,0.00,Weather View 32 v70,2013-04-21 14:08:00,
2013-04-21 10:13:00,42.0,20.0,30.47,West,270,3.0,24.0,41,0.00,,,0.00,Weather View 32 v70,2013-04-21 14:13:00,
2013-04-21 10:18:00,43.0,19.7,30.48,NE,45,9.0,24.0,39,0.00,,,0.00,Weather View 32 v70,2013-04-21 14:18:00,
2013-04-21 10:23:00,43.0,19.7,30.48,SSW,202,6.0,24.0,39,0.00,,,0.00,Weather View 32 v70,2013-04-21 14:23:00,
2013-04-21 10:28:00,41.0,18.5,30.47,NE,45,7.0,24.0,40,0.00,,,0.00,Weather View 32 v70,2013-04-21 14:28:00,
2013-04-21 10:33:00,42.0,18.8,30.48,NNW,337,10.0,24.0,39,0.00,,,0.00,Weather View 32 v70,2013-04-21 14:33:00,
2013-04-21 10:38:00,41.0,17.3,30.46,WNW,292,8.0,24.0,38,0.00,,,0.00,Weather View 32 v70,2013-04-21 14:38:00,
2013-04-21 10:43:00,42.0,18.8,30.47,NW,315,10.0,21.0,39,0.00,,,0.00,Weather View 32 v70,2013-04-21 14:43:00,
2013-04-21 10:48:00,41.0,17.9,30.48,North,360,10.0,21.0,39,0.00,,,0.00,Weather View 32 v70,2013-04-21 14:48:00,
2013-04-21 10:53:00,42.0,18.8,30.48,NW,315,7.0,21.0,39,0.00,,,0.00,Weather View 32 v70,2013-04-21 14:53:00,
2013-04-21 10:58:00,43.0,18.5,30.49,NNE,22,5.0,21.0,37,0.00,,,0.00,Weather View 32 v70,2013-04-21 14:58:00,
2013-04-21 11:03:00,43.0,18.5,30.48,WNW,292,19.0,21.0,37,0.00,,,0.00,Weather View 32 v70,2013-04-21 15:03:00,
2013-04-21 11:08:00,43.0,18.5,30.49,NE,45,12.0,21.0,37,0.00,,,0.00,Weather View 32 v70,2013-04-21 15:08:00,
2013-04-21 11:13:00,43.0,17.8,30.49,NW,315,7.0,21.0,36,0.00,,,0.00,Weather View 32 v70,2013-04-21 15:13:00,
2013-04-21 11:18:00,43.0,18.5,30.49,NNW,337,13.0,21.0,37,0.00,,,0.00,Weather View 32 v70,2013-04-21 15:18:00,
2013-04-21 11:23:00,44.0,19.4,30.49,NW,315,2.0,21.0,37,0.00,,,0.00,Weather View 32 v70,2013-04-21 15:23:00,
2013-04-21 11:28:00,43.0,17.8,30.49,WNW,292,11.0,21.0,36,0.00,,,0.00,Weather View 32 v70,2013-04-21 15:28:00,
2013-04-21 11:33:00,44.0,20.0,30.49,NW,315,13.0,21.0,38,0.00,,,0.00,Weather View 32 v70,2013-04-21 15:33:00,
2013-04-21 11:38:00,44.0,20.6,30.50,WNW,292,14.0,20.0,39,0.00,,,0.00,Weather View 32 v70,2013-04-21 15:38:00,
2013-04-21 11:43:00,44.0,21.2,30.50,SSE,157,2.0,20.0,40,0.00,,,0.00,Weather View 32 v70,2013-04-21 15:43:00,
2013-04-21 11:48:00,43.0,19.1,30.50,NE,45,5.0,20.0,38,0.00,,,0.00,Weather View 32 v70,2013-04-21 15:48:00,
2013-04-21 11:53:00,44.0,20.0,30.50,NW,315,7.0,20.0,38,0.00,,,0.00,Weather View 32 v70,2013-04-21 15:53:00,
2013-04-21 11:58:00,44.0,20.0,30.50,SSW,202,6.0,20.0,38,0.00,,,0.00,Weather View 32 v70,2013-04-21 15:58:00,
2013-04-21 12:03:00,45.0,19.6,30.51,NE,45,10.0,20.0,36,0.00,,,0.00,Weather View 32 v70,2013-04-21 16:03:00,
2013-04-21 12:08:00,44.0,18.7,30.51,NNE,22,11.0,20.0,36,0.00,,,0.00,Weather View 32 v70,2013-04-21 16:08:00,
2013-04-21 12:13:00,45.0,19.0,30.51,WNW,292,13.0,20.0,35,0.00,,,0.00,Weather View 32 v70,2013-04-21 16:13:00,
2013-04-21 12:18:00,44.0,19.4,30.52,NW,315,10.0,20.0,37,0.00,,,0.00,Weather View 32 v70,2013-04-21 16:18:00,
2013-04-21 12:23:00,45.0,20.3,30.51,NW,315,8.0,20.0,37,0.00,,,0.00,Weather View 32 v70,2013-04-21 16:23:00,
2013-04-21 12:28:00,44.0,19.4,30.52,NW,315,13.0,20.0,37,0.00,,,0.00,Weather View 32 v70,2013-04-21 16:28:00,
2013-04-21 12:33:00,44.0,20.0,30.52,NNW,337,10.0,20.0,38,0.00,,,0.00,Weather View 32 v70,2013-04-21 16:33:00,
2013-04-21 12:38:00,46.0,19.2,30.53,South,180,2.0,20.0,34,0.00,,,0.00,Weather View 32 v70,2013-04-21 16:38:00,
2013-04-21 12:43:00,45.0,18.3,30.53,NNW,337,14.0,20.0,34,0.00,,,0.00,Weather View 32 v70,2013-04-21 16:43:00,
2013-04-21 12:48:00,44.0,18.1,30.53,West,270,9.0,22.0,35,0.00,,,0.00,Weather View 32 v70,2013-04-21 16:48:00,
2013-04-21 12:53:00,44.0,18.1,30.53,NE,45,1.0,22.0,35,0.00,,,0.00,Weather View 32 v70,2013-04-21 16:53:00,
2013-04-21 12:58:00,45.0,19.0,30.53,NW,315,15.0,22.0,35,0.00,,,0.00,Weather View 32 v70,2013-04-21 16:58:00,
2013-04-21 13:03:00,46.0,17.7,30.53,North,360,9.0,22.0,32,0.00,,,0.00,Weather View 32 v70,2013-04-21 17:03:00,
2013-04-21 13:08:00,45.0,18.3,30.53,NW,315,12.0,22.0,34,0.00,,,0.00,Weather View 32 v70,2013-04-21 17:08:00,
2013-04-21 13:13:00,45.0,17.6,30.53,East,90,3.0,22.0,33,0.00,,,0.00,Weather View 32 v70,2013-04-21 17:13:00,
2013-04-21 13:18:00,46.0,17.7,30.54,NE,45,11.0,22.0,32,0.00,,,0.00,Weather View 32 v70,2013-04-21 17:18:00,
2013-04-21 13:23:00,46.0,17.7,30.53,North,360,7.0,22.0,32,0.00,,,0.00,Weather View 32 v70,2013-04-21 17:23:00,
2013-04-21 13:28:00,47.0,17.9,30.54,NW,315,14.0,22.0,31,0.00,,,0.00,Weather View 32 v70,2013-04-21 17:28:00,
2013-04-21 13:33:00,48.0,18.8,30.55,South,180,0.0,22.0,31,0.00,,,0.00,Weather View 32 v70,2013-04-21 17:33:00,
2013-04-21 13:38:00,45.0,16.9,30.55,SE,135,5.0,22.0,32,0.00,,,0.00,Weather View 32 v70,2013-04-21 17:38:00,
2013-04-21 13:43:00,46.0,17.0,30.55,North,360,7.0,22.0,31,0.00,,,0.00,Weather View 32 v70,2013-04-21 17:43:00,
2013-04-21 13:48:00,47.0,17.1,30.55,NNE,22,8.0,22.0,30,0.00,,,0.00,Weather View 32 v70,2013-04-21 17:48:00,
2013-04-21 13:53:00,47.0,15.5,30.55,NNW,337,16.0,20.0,28,0.00,,,0.00,Weather View 32 v70,2013-04-21 17:53:00,
2013-04-21 13:58:00,46.0,14.7,30.55,NNW,337,13.0,20.0,28,0.00,,,0.00,Weather View 32 v70,2013-04-21 17:58:00,
2013-04-21 14:03:00,47.0,16.3,30.55,NNW,337,6.0,20.0,29,0.00,,,0.00,Weather View 32 v70,2013-04-21 18:03:00,
2013-04-21 14:08:00,48.0,17.2,30.56,NNE,22,10.0,20.0,29,0.00,,,0.00,Weather View 32 v70,2013-04-21 18:08:00,
2013-04-21 14:13:00,47.0,17.1,30.56,WSW,247,1.0,20.0,30,0.00,,,0.00,Weather View 32 v70,2013-04-21 18:13:00,
2013-04-21 14:18:00,47.0,17.1,30.56,ENE,67,7.0,20.0,30,0.00,,,0.00,Weather View 32 v70,2013-04-21 18:18:00,
2013-04-21 14:23:00,47.0,17.1,30.56,NNE,22,11.0,20.0,30,0.00,,,0.00,Weather View 32 v70,2013-04-21 18:23:00,
2013-04-21 14:28:00,48.0,16.4,30.56,WNW,292,17.0,20.0,28,0.00,,,0.00,Weather View 32 v70,2013-04-21 18:28:00,
2013-04-21 14:33:00,49.0,17.3,30.57,NW,315,12.0,20.0,28,0.00,,,0.00,Weather View 32 v70,2013-04-21 18:33:00,
2013-04-21 14:38:00,46.0,14.7,30.56,North,360,15.0,22.0,28,0.00,,,0.00,Weather View 32 v70,2013-04-21 18:38:00,
2013-04-21 14:43:00,48.0,16.4,30.56,ESE,112,10.0,22.0,28,0.00,,,0.00,Weather View 32 v70,2013-04-21 18:43:00,
2013-04-21 14:48:00,47.0,14.7,30.56,NW,315,16.0,22.0,27,0.00,,,0.00,Weather View 32 v70,2013-04-21 18:48:00,
2013-04-21 14:53:00,46.0,13.0,30.56,NW,315,12.0,22.0,26,0.00,,,0.00,Weather View 32 v70,2013-04-21 18:53:00,
2013-04-21 14:58:00,48.0,14.7,30.55,NW,315,8.0,22.0,26,0.00,,,0.00,Weather View 32 v70,2013-04-21 18:58:00,
2013-04-21 15:03:00,48.0,13.8,30.56,North,360,13.0,24.0,25,0.00,,,0.00,Weather View 32 v70,2013-04-21 19:03:00,
2013-04-21 15:08:00,48.0,13.8,30.56,NE,45,16.0,24.0,25,0.00,,,0.00,Weather View 32 v70,2013-04-21 19:08:00,
2013-04-21 15:13:00,49.0,11.7,30.57,NW,315,15.0,24.0,22,0.00,,,0.00,Weather View 32 v70,2013-04-21 19:13:00,
2013-04-21 15:18:00,49.0,13.7,30.57,NNE,22,6.0,24.0,24,0.00,,,0.00,Weather View 32 v70,2013-04-21 19:18:00,
2013-04-21 15:23:00,49.0,12.8,30.57,West,270,3.0,24.0,23,0.00,,,0.00,Weather View 32 v70,2013-04-21 19:23:00,
2013-04-21 15:28:00,49.0,11.7,30.57,NNE,22,4.0,24.0,22,0.00,,,0.00,Weather View 32 v70,2013-04-21 19:28:00,
2013-04-21 15:33:00,49.0,12.8,30.57,North,360,13.0,24.0,23,0.00,,,0.00,Weather View 32 v70,2013-04-21 19:33:00,
2013-04-21 15:38:00,48.0,10.9,30.57,NNE,22,9.0,24.0,22,0.00,,,0.00,Weather View 32 v70,2013-04-21 19:38:00,
2013-04-21 15:43:00,48.0,10.9,30.57,NNW,337,9.0,24.0,22,0.00,,,0.00,Weather View 32 v70,2013-04-21 19:43:00,
2013-04-21 15:48:00,48.0,10.9,30.57,North,360,9.0,24.0,22,0.00,,,0.00,Weather View 32 v70,2013-04-21 19:48:00,
2013-04-21 15:53:00,50.0,12.6,30.57,SSW,202,3.0,24.0,22,0.00,,,0.00,Weather View 32 v70,2013-04-21 19:53:00,
2013-04-21 15:58:00,48.0,12.9,30.57,NNE,22,7.0,24.0,24,0.00,,,0.00,Weather View 32 v70,2013-04-21 19:58:00,
2013-04-21 16:03:00,49.0,9.6,30.57,NW,315,13.0,22.0,20,0.00,,,0.00,Weather View 32 v70,2013-04-21 20:03:00,
2013-04-21 16:08:00,50.0,9.3,30.58,North,360,6.0,22.0,19,0.00,,,0.00,Weather View 32 v70,2013-04-21 20:08:00,
2013-04-21 16:13:00,49.0,9.6,30.58,NE,45,8.0,22.0,20,0.00,,,0.00,Weather View 32 v70,2013-04-21 20:13:00,
2013-04-21 16:18:00,49.0,9.6,30.58,NNW,337,14.0,22.0,20,0.00,,,0.00,Weather View 32 v70,2013-04-21 20:18:00,
2013-04-21 16:23:00,49.0,8.5,30.58,NW,315,7.0,22.0,19,0.00,,,0.00,Weather View 32 v70,2013-04-21 20:23:00,
2013-04-21 16:28:00,49.0,9.6,30.58,SE,135,7.0,22.0,20,0.00,,,0.00,Weather View 32 v70,2013-04-21 20:28:00,
2013-04-21 16:33:00,50.0,10.4,30.58,WNW,292,4.0,22.0,20,0.00,,,0.00,Weather View 32 v70,2013-04-21 20:33:00,
2013-04-21 16:38:00,51.0,11.3,30.58,NW,315,2.0,22.0,20,0.00,,,0.00,Weather View 32 v70,2013-04-21 20:38:00,
2013-04-21 16:43:00,50.0,10.4,30.58,NNE,22,3.0,22.0,20,0.00,,,0.00,Weather View 32 v70,2013-04-21 20:43:00,
2013-04-21 16:48:00,50.0,10.4,30.58,NNE,22,6.0,22.0,20,0.00,,,0.00,Weather View 32 v70,2013-04-21 20:48:00,
2013-04-21 16:53:00,49.0,8.5,30.59,NW,315,12.0,22.0,19,0.00,,,0.00,Weather View 32 v70,2013-04-21 20:53:00,
2013-04-21 16:58:00,50.0,10.4,30.59,NW,315,11.0,19.0,20,0.00,,,0.00,Weather View 32 v70,2013-04-21 20:58:00,
2013-04-21 17:03:00,50.0,10.4,30.59,NW,315,13.0,19.0,20,0.00,,,0.00,Weather View 32 v70,2013-04-21 21:03:00,
2013-04-21 17:08:00,50.0,9.3,30.59,North,360,12.0,17.0,19,0.00,,,0.00,Weather View 32 v70,2013-04-21 21:08:00,
2013-04-21 17:13:00,50.0,10.4,30.60,WNW,292,2.0,17.0,20,0.00,,,0.00,Weather View 32 v70,2013-04-21 21:13:00,
2013-04-21 17:18:00,49.0,10.7,30.60,NW,315,14.0,18.0,21,0.00,,,0.00,Weather View 32 v70,2013-04-21 21:18:00,
2013-04-21 17:23:00,48.0,9.9,30.59,NW,315,12.0,19.0,21,0.00,,,0.00,Weather View 32 v70,2013-04-21 21:23:00,
2013-04-21 17:28:00,48.0,9.9,30.59,North,360,4.0,19.0,21,0.00,,,0.00,Weather View 32 v70,2013-04-21 21:28:00,
2013-04-21 17:33:00,49.0,9.6,30.59,NNE,22,10.0,19.0,20,0.00,,,0.00,Weather View 32 v70,2013-04-21 21:33:00,
2013-04-21 17:38:00,49.0,9.6,30.60,West,270,8.0,19.0,20,0.00,,,0.00,Weather View 32 v70,2013-04-21 21:38:00,
2013-04-21 17:43:00,48.0,8.8,30.59,North,360,2.0,19.0,20,0.00,,,0.00,Weather View 32 v70,2013-04-21 21:43:00,
2013-04-21 17:48:00,48.0,9.9,30.60,SW,225,3.0,19.0,21,0.00,,,0.00,Weather View 32 v70,2013-04-21 21:48:00,
2013-04-21 17:53:00,49.0,11.7,30.60,NW,315,10.0,19.0,22,0.00,,,0.00,Weather View 32 v70,2013-04-21 21:53:00,
2013-04-21 17:58:00,49.0,10.7,30.61,North,360,8.0,19.0,21,0.00,,,0.00,Weather View 32 v70,2013-04-21 21:58:00,
2013-04-21 18:03:00,49.0,11.7,30.61,North,360,7.0,19.0,22,0.00,,,0.00,Weather View 32 v70,2013-04-21 22:03:00,
2013-04-21 18:08:00,48.0,10.9,30.61,SW,225,3.0,19.0,22,0.00,,,0.00,Weather View 32 v70,2013-04-21 22:08:00,
2013-04-21 18:13:00,48.0,10.9,30.61,NNW,337,12.0,19.0,22,0.00,,,0.00,Weather View 32 v70,2013-04-21 22:13:00,
2013-04-21 18:18:00,48.0,10.9,30.61,SE,135,0.0,19.0,22,0.00,,,0.00,Weather View 32 v70,2013-04-21 22:18:00,
2013-04-21 18:23:00,48.0,9.9,30.61,NW,315,11.0,19.0,21,0.00,,,0.00,Weather View 32 v70,2013-04-21 22:23:00,
2013-04-21 18:28:00,48.0,10.9,30.61,NW,315,12.0,19.0,22,0.00,,,0.00,Weather View 32 v70,2013-04-21 22:28:00,
2013-04-21 18:33:00,48.0,10.9,30.61,NNW,337,14.0,19.0,22,0.00,,,0.00,Weather View 32 v70,2013-04-21 22:33:00,
2013-04-21 18:38:00,48.0,9.9,30.61,North,360,6.0,19.0,21,0.00,,,0.00,Weather View 32 v70,2013-04-21 22:38:00,
2013-04-21 18:43:00,48.0,10.9,30.61,NNW,337,11.0,18.0,22,0.00,,,0.00,Weather View 32 v70,2013-04-21 22:43:00,
2013-04-21 18:48:00,47.0,10.1,30.61,NW,315,6.0,18.0,22,0.00,,,0.00,Weather View 32 v70,2013-04-21 22:48:00,
2013-04-21 18:53:00,47.0,10.1,30.62,NNW,337,9.0,18.0,22,0.00,,,0.00,Weather View 32 v70,2013-04-21 22:53:00,
2013-04-21 18:58:00,47.0,11.1,30.61,South,180,0.0,18.0,23,0.00,,,0.00,Weather View 32 v70,2013-04-21 22:58:00,
2013-04-21 19:03:00,47.0,11.1,30.61,NW,315,7.0,18.0,23,0.00,,,0.00,Weather View 32 v70,2013-04-21 23:03:00,
2013-04-21 19:08:00,47.0,11.1,30.61,WNW,292,3.0,18.0,23,0.00,,,0.00,Weather View 32 v70,2013-04-21 23:08:00,
2013-04-21 19:13:00,46.0,11.2,30.61,NW,315,7.0,18.0,24,0.00,,,0.00,Weather View 32 v70,2013-04-21 23:13:00,
2013-04-21 19:18:00,46.0,12.1,30.61,NNW,337,4.0,18.0,25,0.00,,,0.00,Weather View 32 v70,2013-04-21 23:18:00,
2013-04-21 19:23:00,45.0,11.2,30.61,NW,315,3.0,16.0,25,0.00,,,0.00,Weather View 32 v70,2013-04-21 23:23:00,
2013-04-21 19:28:00,45.0,13.0,30.61,NNW,337,1.0,14.0,27,0.00,,,0.00,Weather View 32 v70,2013-04-21 23:28:00,
2013-04-21 19:33:00,44.0,12.9,30.61,North,360,1.0,14.0,28,0.00,,,0.00,Weather View 32 v70,2013-04-21 23:33:00,
2013-04-21 19:38:00,43.0,12.1,30.61,North,360,0.0,14.0,28,0.00,,,0.00,Weather View 32 v70,2013-04-21 23:38:00,
2013-04-21 19:43:00,43.0,12.9,30.61,NNE,22,3.0,14.0,29,0.00,,,0.00,Weather View 32 v70,2013-04-21 23:43:00,
2013-04-21 19:48:00,43.0,12.9,30.61,NNE,22,2.0,14.0,29,0.00,,,0.00,Weather View 32 v70,2013-04-21 23:48:00,
2013-04-21 19:53:00,42.0,12.0,30.61,NNE,22,0.0,14.0,29,0.00,,,0.00,Weather View 32 v70,2013-04-21 23:53:00,
2013-04-21 19:58:00,42.0,14.2,30.61,NNW,337,1.0,10.0,32,0.00,,,0.00,Weather View 32 v70,2013-04-21 23:58:00,
2013-04-21 20:03:00,41.0,14.7,30.61,NNW,337,1.0,9.0,34,0.00,,,0.00,Weather View 32 v70,2013-04-22 00:03:00,
2013-04-21 20:08:00,40.0,15.2,30.61,NNW,337,0.0,9.0,36,0.00,,,0.00,Weather View 32 v70,2013-04-22 00:08:00,
2013-04-21 20:13:00,39.0,16.1,30.61,NNW,337,1.0,7.0,39,0.00,,,0.00,Weather View 32 v70,2013-04-22 00:13:00,
2013-04-21 20:18:00,39.0,16.7,30.61,NNW,337,0.0,7.0,40,0.00,,,0.00,Weather View 32 v70,2013-04-22 00:18:00,
2013-04-21 20:23:00,38.0,19.0,30.60,NNW,337,1.0,7.0,46,0.00,,,0.00,Weather View 32 v70,2013-04-22 00:23:00,
2013-04-21 20:28:00,37.0,19.6,30.60,NNW,337,0.0,6.0,49,0.00,,,0.00,Weather View 32 v70,2013-04-22 00:28:00,
2013-04-21 20:33:00,37.0,19.6,30.58,NNE,22,0.0,5.0,49,0.00,,,0.00,Weather View 32 v70,2013-04-22 00:33:00,
2013-04-21 20:38:00,37.0,19.6,30.58,NNE,22,0.0,5.0,49,0.00,,,0.00,Weather View 32 v70,2013-04-22 00:38:00,
2013-04-21 20:44:00,36.0,21.0,30.60,NNE,22,4.0,5.0,54,0.00,,,0.00,Weather View 32 v70,2013-04-22 00:44:00,
2013-04-21 20:49:00,36.0,21.0,30.60,NNE,22,0.0,5.0,54,0.00,,,0.00,Weather View 32 v70,2013-04-22 00:49:00,
2013-04-21 20:54:00,35.0,20.5,30.60,NNE,22,2.0,5.0,55,0.00,,,0.00,Weather View 32 v70,2013-04-22 00:54:00,
2013-04-21 20:59:00,35.0,19.1,30.60,NNE,22,1.0,5.0,52,0.00,,,0.00,Weather View 32 v70,2013-04-22 00:59:00,
2013-04-21 21:04:00,36.0,21.8,30.60,NNW,337,2.0,5.0,56,0.00,,,0.00,Weather View 32 v70,2013-04-22 01:04:00,
2013-04-21 21:09:00,35.0,21.3,30.60,NNW,337,0.0,5.0,57,0.00,,,0.00,Weather View 32 v70,2013-04-22 01:09:00,
2013-04-21 21:14:00,35.0,21.3,30.60,NNW,337,1.0,5.0,57,0.00,,,0.00,Weather View 32 v70,2013-04-22 01:14:00,
2013-04-21 21:19:00,35.0,22.5,30.60,NNW,337,0.0,5.0,60,0.00,,,0.00,Weather View 32 v70,2013-04-22 01:19:00,
2013-04-21 21:24:00,34.0,23.1,30.61,NNW,337,0.0,5.0,64,0.00,,,0.00,Weather View 32 v70,2013-04-22 01:24:00,
2013-04-21 21:29:00,34.0,23.1,30.60,NNE,22,0.0,5.0,64,0.00,,,0.00,Weather View 32 v70,2013-04-22 01:29:00,
2013-04-21 21:34:00,34.0,22.3,30.61,North,360,3.0,4.0,62,0.00,,,0.00,Weather View 32 v70,2013-04-22 01:34:00,
2013-04-21 21:39:00,34.0,22.0,30.61,NNE,22,0.0,4.0,61,0.00,,,0.00,Weather View 32 v70,2013-04-22 01:39:00,
2013-04-21 21:44:00,33.0,21.8,30.60,North,360,1.0,4.0,63,0.00,,,0.00,Weather View 32 v70,2013-04-22 01:44:00,
2013-04-21 21:49:00,33.0,22.9,30.60,NNE,22,2.0,4.0,66,0.00,,,0.00,Weather View 32 v70,2013-04-22 01:49:00,
2013-04-21 21:54:00,33.0,22.9,30.60,North,360,0.0,4.0,66,0.00,,,0.00,Weather View 32 v70,2013-04-22 01:54:00,
2013-04-21 21:59:00,32.0,22.3,30.60,NNW,337,0.0,4.0,67,0.00,,,0.00,Weather View 32 v70,2013-04-22 01:59:00,
2013-04-21 22:04:00,32.0,22.6,30.61,NNW,337,0.0,4.0,68,0.00,,,0.00,Weather View 32 v70,2013-04-22 02:04:00,
2013-04-21 22:09:00,32.0,23.3,30.60,NNW,337,2.0,4.0,70,0.00,,,0.00,Weather View 32 v70,2013-04-22 02:09:00,
2013-04-21 22:14:00,31.0,23.0,30.60,NNW,337,1.0,4.0,72,0.00,,,0.00,Weather View 32 v70,2013-04-22 02:14:00,
2013-04-21 22:19:00,31.0,23.4,30.60,NNW,337,1.0,4.0,73,0.00,,,0.00,Weather View 32 v70,2013-04-22 02:19:00,
2013-04-21 22:24:00,31.0,24.0,30.60,NNW,337,2.0,4.0,75,0.00,,,0.00,Weather View 32 v70,2013-04-22 02:24:00,
2013-04-21 22:29:00,31.0,24.0,30.60,NNW,337,0.0,4.0,75,0.00,,,0.00,Weather View 32 v70,2013-04-22 02:29:00,
2013-04-21 22:34:00,30.0,22.7,30.59,NNW,337,0.0,4.0,74,0.00,,,0.00,Weather View 32 v70,2013-04-22 02:34:00,
2013-04-21 22:39:00,30.0,23.0,30.59,NNW,337,2.0,4.0,75,0.00,,,0.00,Weather View 32 v70,2013-04-22 02:39:00,
2013-04-21 22:44:00,30.0,23.4,30.59,NNW,337,0.0,4.0,76,0.00,,,0.00,Weather View 32 v70,2013-04-22 02:44:00,
2013-04-21 22:49:00,30.0,23.7,30.59,NNW,337,1.0,4.0,77,0.00,,,0.00,Weather View 32 v70,2013-04-22 02:49:00,
2013-04-21 22:54:00,29.0,22.7,30.59,NNW,337,1.0,4.0,77,0.00,,,0.00,Weather View 32 v70,2013-04-22 02:54:00,
2013-04-21 22:59:00,29.0,23.0,30.59,NNW,337,1.0,4.0,78,0.00,,,0.00,Weather View 32 v70,2013-04-22 02:59:00,
2013-04-21 23:04:00,29.0,23.0,30.57,NNW,337,2.0,4.0,78,0.00,,,0.00,Weather View 32 v70,2013-04-22 03:04:00,
2013-04-21 23:09:00,29.0,23.0,30.59,NNW,337,2.0,4.0,78,0.00,,,0.00,Weather View 32 v70,2013-04-22 03:09:00,
2013-04-21 23:14:00,29.0,22.7,30.59,NNW,337,2.0,4.0,77,0.00,,,0.00,Weather View 32 v70,2013-04-22 03:14:00,
2013-04-21 23:19:00,29.0,23.3,30.59,NNE,22,3.0,4.0,79,0.00,,,0.00,Weather View 32 v70,2013-04-22 03:19:00,
2013-04-21 23:24:00,29.0,23.6,30.59,NNE,22,3.0,5.0,80,0.00,,,0.00,Weather View 32 v70,2013-04-22 03:24:00,
2013-04-21 23:29:00,29.0,24.2,30.60,NNE,22,1.0,5.0,82,0.00,,,0.00,Weather View 32 v70,2013-04-22 03:29:00,
2013-04-21 23:34:00,29.0,24.2,30.59,NNE,22,5.0,5.0,82,0.00,,,0.00,Weather View 32 v70,2013-04-22 03:34:00,
2013-04-21 23:39:00,29.0,23.6,30.60,NNE,22,3.0,5.0,80,0.00,,,0.00,Weather View 32 v70,2013-04-22 03:39:00,
2013-04-21 23:44:00,29.0,23.0,30.60,NNE,22,2.0,5.0,78,0.00,,,0.00,Weather View 32 v70,2013-04-22 03:44:00,
2013-04-21 23:49:00,29.0,23.0,30.60,NNE,22,3.0,5.0,78,0.00,,,0.00,Weather View 32 v70,2013-04-22 03:49:00,
2013-04-21 23:54:00,29.0,22.7,30.60,NNE,22,2.0,5.0,77,0.00,,,0.00,Weather View 32 v70,2013-04-22 03:54:00,
2013-04-21 23:59:00,28.0,21.7,30.60,NNE,22,2.0,5.0,77,0.00,,,0.00,Weather View 32 v70,2013-04-22 03:59:00,